Temp
5 5 5 5 5 5 5 5 5 5 5 6 5 6 6 6 6 7 7 8 8 8 8 9 9 8 8 8 9 9 9 9 9 9 9 9 9 10 11 10 11 11 9 9 9 8 8
5 5 5 5 5 5 5 5 5 5 6 6 6 6 6 6 6 7 7 8 8 8 8 8 9 9 8 8 8 9 9 9 9 9 9 9 10 9 10 11 10 10 9 8 8 8 8
5 5 5 5 5 5 5 5 5 5 6 6 6 6 6 6 7 7 7 7 8 8 8 8 8 9 8 9 8 9 9 9 9 9 9 10 10 10 10 9 9 9 9 8 8 7 7
4 5 5 5 5 5 5 5 5 5 5 6 6 6 6 6 6 7 7 7 7 8 8 8 8 8 8 8 8 9 9 9 9 9 9 9 9 9 9 9 9 9 9 10 9 8 8
4 4 4 4 5 5 5 5 5 5 5 5 5 6 6 6 6 6 7 7 7 7 8 8 8 8 8 8 9 9 8 8 8 8 9 9 9 9 9 9 9 10 11 11 9 8 8
3 3 4 4 4 4 4 5 5 5 5 5 5 5 6 6 6 6 6 7 7 7 8 8 8 8 8 8 8 8 8 8 8 9 9 9 9 9 9 10 11 11 11 12 11 10 9
2 2 3 3 4 4 4 4 4 5 5 5 5 5 5 5 6 6 6 6 6 7 7 7 7 8 7 8 9 9 8 8 8 8 9 9 9 10 11 11 11 12 11 13 13 11 10
2 2 2 2 3 3 3 4 4 4 5 5 5 5 4 5 5 5 5 5 5 6 7 7 8 8 8 9 8 8 8 8 8 8 9 9 9 10 11 11 11 11 12 13 12 11 10
1 1 1 2 2 2 2 3 3 3 4 4 5 4 4 4 4 5 4 5 5 5 6 7 8 8 8 8 8 7 8 8 8 8 9 9 10 10 10 10 10 11 12 12 12 11 10
0 0 0 1 1 1 2 2 2 3 3 3 4 4 4 4 4 4 4 4 5 5 6 7 7 8 7 8 8 7 7 7 8 8 9 9 9 9 9 10 10 11 10 10 11 10 11
-1 -1 -0 -0 -0 0 1 1 1 2 2 3 3 3 3 3 3 3 4 4 4 5 3 7 7 7 7 7 8 8 8 7 7 8 8 9 9 8 9 9 9 9 9 9 10 10 10
-2 -2 -1 -1 -1 -0 0 -0 0 1 1 2 2 2 3 2 3 3 3 3 3 4 3 7 7 7 7 7 7 8 7 7 7 7 8 8 8 8 8 9 9 8 9 9 9 9 10
-2 -2 -2 -2 -1 -1 -1 -1 -1 -0 0 1 1 2 2 2 2 3 2 2 3 3 6 7 7 7 7 7 7 7 7 7 7 7 7 8 7 7 8 8 8 8 8 9 9 8 9
-3 -3 -2 -2 -2 -1 -1 -2 -1 -1 -0 0 1 1 2 2 2 2 1 1 2 3 6 7 7 7 7 7 7 8 8 7 7 8 8 8 9 8 8 8 8 8 8 8 8 9 10
-4 -3 -3 -3 -3 -2 -2 -2 -2 -1 -1 -0 -0 0 1 1 1 2 1 1 2 4 6 7 7 7 7 8 8 8 7 8 8 8 8 9 9 8 7 7 8 8 8 8 8 8 8
-4 -4 -4 -4 -3 -3 -3 -3 -2 -2 -2 -1 -1 -0 -0 1 0 1 1 2 1 3 5 5 7 7 8 8 7 7 7 8 8 9 8 8 9 7 7 7 7 8 7 7 8 5 7
-5 -5 -5 -5 -4 -4 -4 -3 -3 -3 -3 -2 -2 -2 -1 -1 -0 0 0 1 1 3 3 4 6 7 8 9 8 8 8 8 8 8 8 7 8 7 6 7 7 7 7 7 7 7 7
-6 -6 -6 -5 -5 -5 -4 -4 -4 -4 -4 -3 -3 -3 -2 -1 -1 -0 1 -0 0 2 2 4 4 5 7 7 8 8 8 8 7 7 7 7 7 7 7 7 7 7 7 7 6 6 6
-7 -7 -6 -6 -6 -5 -5 -5 -5 -5 -4 -4 -4 -5 -4 -2 -2 -2 -2 -1 -0 1 1 3 3 4 5 6 7 7 8 7 6 6 6 6 6 7 7 6 6 7 7 6 7 6 6
-8 -7 -7 -7 -7 -6 -6 -6 -5 -6 -5 -5 -5 -5 -4 -3 -3 -3 -2 -1 -0 0 1 1 3 3 4 4 5 6 7 6 6 6 6 6 6 6 7 7 7 6 6 6 6 5 5
-8 -8 -8 -8 -8 -8 -7 -7 -7 -6 -6 -6 -6 -5 -6 -5 -3 -3 -3 -1 -0 1 -0 1 1 2 3 4 5 5 6 5 5 5 5 5 5 6 7 7 6 6 6 5 5 6 5
-9 -9 -9 -9 -9 -9 -8 -8 -7 -7 -7 -7 -6 -7 -6 -5 -5 -4 -4 -3 -2 -1 1 1 0 0 2 3 4 5 5 5 5 5 5 5 5 6 6 6 6 7 7 6 5 5 5
-9 -9 -9 -9 -9 -9 -9 -9 -8 -8 -8 -7 -7 -9 -7 -5 -6 -5 -3 -4 -3 -2 -1 -1 1 1 0 1 2 4 4 4 5 5 5 4 4 5 5 6 6 6 6 6 6 6 6
-9 -9 -9 -9 -9 -9 -9 -9 -9 -9 -8 -8 -8 -9 -8 -7 -6 -5 -4 -4 -3 -3 -2 -1 -1 0 0 -0 1 3 3 4 4 5 4 4 4 4 4 5 1 6 6 6 6 6 6
-9 -9 -9 -9 -9 -9 -9 -10 -9 -9 -9 -9 -9 -9 -9 -8 -7 -6 -5 -5 -4 -4 -3 -3 -3 -1 -1 -1 -1 1 2 2 3 4 4 4 4 4 3 4 5 6 6 6 5 5 5
-9 -9 -9 -9 -9 -9 -10 -10 -10 -10 -10 -9 -10 -10 -9 -9 -7 -8 -7 -7 -6 -5 -4 -3 -1 -2 -2 -2 -2 -1 -1 1 2 3 3 4 4 4 3 3 4 6 6 5 5 5 5
-10 -9 -9 -9 -9 -10 -11 -11 -11 -11 -11 -10 -10 -10 -10 -9 -8 -9 -8 -7 -6 -6 -4 -4 -3 -3 -3 -2 -2 -2 -1 1 3 3 2 3 3 3 3 3 5 6 5 5 4 5 5
-10 -10 -9 -9 -9 -10 -11 -11 -12 -11 -11 -11 -10 -11 -10 -10 -9 -9 -9 -8 -8 -6 -5 -3 -4 -3 -3 -3 -3 -2 -1 0 1 3 3 2 3 2 2 3 3 5 4 4 4 4 4
-10 -10 -10 -9 -9 -10 -10 -11 -12 -12 -12 -12 -11 -11 -11 -11 -9 -9 -9 -8 -8 -7 -5 -4 -4 -3 -4 -3 -3 -2 -1 0 1 1 3 3 3 3 3 4 5 4 4 4 4 4 4
Height
3156 3157 3157 3158 3159 3160 3160 3161 3162 3162 3162 3161 3161 3160 3160 3162 3163 3163 3163 3162 3162 3163 3164 3165 3167 3168 3170 3171 3171 3172 3172 3174 3175 3175 3176 3176 3181 3182 3183 3182 3182 3181 3179 3177 3175 3176 3177
3152 3154 3154 3154 3155 3156 3157 3158 3158 3158 3158 3158 3158 3158 3158 3158 3159 3161 3161 3161 3161 3161 3162 3163 3165 3166 3169 3170 3171 3172 3172 3173 3174 3175 3176 3178 3181 3182 3182 3181 3181 3180 3179 3177 3176 3177 3177
3149 3149 3150 3150 3151 3151 3152 3154 3155 3155 3155 3155 3155 3155 3156 3156 3156 3157 3158 3159 3159 3159 3160 3162 3163 3164 3166 3168 3169 3171 3171 3172 3173 3175 3176 3180 3181 3181 3181 3180 3179 3179 3178 3177 3177 3176 3176
3145 3146 3146 3146 3147 3148 3148 3149 3150 3152 3152 3152 3152 3152 3153 3153 3154 3154 3155 3157 3157 3158 3159 3160 3162 3163 3164 3164 3168 3169 3171 3172 3172 3175 3177 3175 3176 3177 3179 3178 3178 3179 3179 3178 3176 3175 3177
3141 3141 3143 3143 3143 3144 3144 3144 3145 3146 3148 3149 3149 3149 3150 3150 3151 3151 3152 3154 3155 3156 3157 3158 3161 3162 3165 3163 3167 3168 3171 3173 3172 3172 3172 3174 3175 3176 3176 3176 3178 3177 3175 3175 3175 3174 3176
3136 3137 3138 3139 3139 3140 3140 3141 3141 3141 3142 3145 3145 3146 3147 3147 3148 3149 3149 3151 3153 3154 3156 3157 3159 3163 3162 3165 3164 3165 3168 3169 3171 3171 3173 3173 3174 3174 3174 3175 3173 3175 3175 3171 3171 3171 3174
3131 3132 3132 3134 3135 3135 3136 3136 3137 3137 3138 3139 3141 3142 3143 3144 3145 3146 3148 3149 3153 3153 3152 3155 3155 3159 3158 3160 3162 3164 3165 3167 3170 3171 3172 3172 3174 3173 3172 3173 3172 3171 3173 3169 3167 3168 3171
3125 3126 3127 3128 3129 3130 3131 3132 3132 3134 3134 3135 3136 3138 3139 3141 3143 3144 3145 3147 3148 3150 3150 3150 3152 3154 3155 3156 3159 3162 3163 3167 3169 3170 3171 3174 3172 3172 3171 3171 3170 3170 3170 3169 3168 3168 3171
3118 3119 3121 3122 3123 3124 3126 3127 3128 3129 3130 3131 3132 3134 3136 3138 3140 3142 3143 3144 3146 3147 3147 3148 3148 3151 3153 3155 3157 3160 3160 3163 3167 3168 3168 3170 3170 3169 3167 3168 3170 3171 3170 3169 3169 3167 3170
3112 3113 3114 3116 3117 3119 3120 3120 3123 3125 3126 3127 3128 3130 3132 3135 3138 3139 3140 3142 3143 3146 3146 3146 3145 3146 3149 3151 3154 3158 3157 3162 3164 3165 3167 3168 3167 3167 3167 3169 3171 3170 3169 3168 3169 3169 3170
3105 3107 3109 3110 3112 3113 3114 3115 3117 3120 3122 3123 3124 3126 3128 3130 3134 3135 3140 3140 3142 3146 3146 3144 3144 3142 3145 3148 3152 3152 3154 3157 3160 3163 3166 3166 3164 3165 3166 3168 3169 3169 3169 3170 3169 3169 3169
3099 3101 3102 3104 3106 3108 3110 3110 3112 3114 3117 3119 3120 3122 3124 3127 3129 3131 3136 3139 3143 3146 3140 3139 3139 3138 3142 3145 3149 3151 3150 3154 3158 3159 3161 3163 3162 3163 3165 3166 3166 3167 3168 3169 3169 3169 3168
3092 3094 3096 3097 3100 3102 3104 3105 3107 3109 3111 3114 3116 3117 3120 3123 3124 3131 3135 3138 3143 3138 3136 3136 3136 3137 3139 3142 3145 3148 3148 3150 3153 3157 3158 3160 3160 3160 3161 3163 3164 3166 3169 3170 3167 3166 3166
3086 3088 3090 3092 3094 3096 3098 3099 3101 3103 3106 3109 3111 3113 3115 3118 3121 3126 3132 3137 3135 3131 3132 3131 3134 3136 3137 3140 3142 3144 3146 3148 3150 3153 3155 3156 3157 3156 3157 3160 3163 3163 3167 3169 3168 3163 3163
3079 3081 3084 3087 3088 3090 3092 3093 3095 3097 3100 3103 3105 3108 3111 3112 3116 3121 3127 3128 3125 3128 3130 3132 3132 3134 3135 3136 3139 3141 3143 3144 3146 3149 3152 3152 3152 3152 3154 3157 3160 3162 3163 3166 3165 3165 3166
3072 3075 3077 3079 3082 3083 3085 3087 3089 3091 3093 3097 3100 3103 3104 3110 3112 3118 3121 3116 3121 3127 3128 3128 3129 3131 3132 3133 3135 3137 3139 3139 3141 3145 3148 3149 3150 3150 3152 3154 3156 3158 3160 3163 3164 3167 3165
3066 3069 3071 3073 3075 3077 3079 3081 3083 3085 3087 3091 3095 3098 3097 3104 3107 3111 3108 3108 3117 3124 3125 3128 3128 3128 3129 3130 3132 3133 3135 3137 3137 3141 3143 3146 3149 3151 3149 3150 3153 3155 3156 3158 3161 3162 3161
3059 3062 3064 3066 3069 3071 3073 3075 3078 3080 3082 3085 3089 3094 3094 3098 3103 3102 3100 3108 3113 3119 3123 3123 3123 3124 3127 3128 3128 3131 3132 3133 3133 3137 3139 3142 3145 3145 3147 3147 3149 3150 3152 3154 3156 3158 3158
3053 3056 3058 3060 3063 3065 3067 3070 3072 3075 3077 3082 3085 3089 3088 3092 3094 3097 3100 3103 3106 3113 3116 3120 3122 3123 3125 3126 3128 3128 3130 3128 3130 3134 3136 3139 3141 3143 3144 3146 3145 3146 3148 3149 3150 3153 3154
3048 3050 3053 3054 3057 3059 3061 3063 3067 3070 3074 3078 3081 3081 3083 3086 3090 3093 3096 3099 3103 3107 3111 3114 3119 3121 3123 3124 3125 3126 3127 3126 3128 3130 3132 3134 3138 3139 3139 3140 3140 3141 3142 3144 3147 3148 3148
3042 3046 3049 3051 3051 3054 3055 3058 3062 3065 3069 3073 3075 3077 3081 3081 3084 3086 3091 3095 3099 3102 3105 3110 3110 3114 3118 3121 3122 3123 3124 3122 3124 3126 3129 3132 3134 3136 3138 3139 3139 3139 3138 3139 3140 3142 3146
3036 3040 3042 3044 3046 3048 3050 3053 3057 3060 3063 3068 3070 3073 3073 3076 3079 3083 3084 3088 3092 3095 3102 3105 3106 3110 3114 3117 3119 3118 3118 3121 3122 3122 3125 3128 3131 3132 3134 3135 3136 3137 3137 3136 3137 3139 3141
3030 3033 3036 3039 3041 3043 3045 3048 3051 3056 3060 3061 3065 3067 3069 3072 3075 3080 3082 3084 3087 3092 3091 3095 3103 3106 3105 3111 3108 3111 3114 3117 3119 3121 3121 3124 3127 3130 3130 3132 3133 3132 3132 3132 3134 3135 3135
3024 3028 3030 3033 3036 3038 3041 3043 3047 3051 3054 3057 3059 3062 3065 3065 3070 3076 3080 3080 3081 3085 3088 3092 3091 3095 3102 3101 3105 3108 3111 3113 3114 3118 3118 3120 3124 3127 3127 3129 3132 3126 3128 3129 3128 3128 3129
3019 3023 3025 3028 3032 3034 3036 3039 3042 3045 3049 3052 3055 3060 3062 3062 3064 3069 3073 3073 3075 3077 3082 3084 3086 3088 3092 3096 3101 3104 3107 3110 3111 3113 3115 3118 3121 3122 3124 3125 3125 3125 3125 3123 3123 3124 3125
3013 3017 3021 3024 3027 3029 3032 3034 3037 3040 3044 3048 3051 3054 3058 3059 3060 3065 3066 3066 3070 3073 3077 3079 3081 3083 3088 3092 3095 3097 3100 3105 3106 3108 3111 3114 3117 3119 3120 3122 3120 3120 3117 3118 3119 3118 3120
3008 3012 3016 3020 3023 3025 3028 3030 3032 3035 3039 3042 3046 3050 3053 3053 3056 3058 3061 3062 3065 3068 3071 3075 3078 3079 3083 3082 3088 3092 3094 3099 3099 3101 3106 3108 3111 3112 3114 3116 3115 3117 3114 3116 3118 3118 3114
3002 3007 3012 3015 3018 3020 3023 3025 3028 3031 3034 3037 3041 3045 3048 3048 3051 3053 3055 3057 3061 3064 3067 3070 3074 3075 3076 3080 3084 3087 3088 3090 3093 3096 3099 3101 3105 3106 3110 3112 3112 3112 3110 3114 3112 3110 3111
2997 3002 3007 3010 3013 3015 3018 3020 3023 3026 3030 3032 3036 3039 3043 3044 3045 3047 3048 3049 3053 3058 3061 3065 3069 3070 3075 3077 3078 3082 3084 3086 3086 3090 3093 3096 3095 3098 3101 3100 3103 3106 3106 3106 3107 3107 3108
Wind_Speed
21 21 20 19 19 19 18 18 17 16 17 17 16 14 14 16 15 13 10 10 11 13 14 13 12 11 10 9 2 4 7 14 14 8 4 6 5 7 10 4 3 4 2 3 2 9 10
20 22 23 23 22 21 20 19 18 17 16 15 15 14 13 14 16 16 13 11 11 12 14 14 14 14 13 11 13 14 8 9 16 15 8 3 7 9 6 4 4 5 3 4 1 8 11
19 20 22 23 25 24 23 21 20 19 16 14 15 15 15 14 14 17 17 12 11 11 13 14 14 15 16 11 14 13 11 10 8 11 9 8 12 9 7 7 6 6 6 5 7 7 7
18 18 19 22 23 24 25 24 21 22 20 17 15 15 15 16 15 14 17 15 12 12 13 14 14 15 14 18 16 11 10 11 10 10 10 17 19 10 12 12 7 7 8 8 11 8 9
22 20 20 19 20 22 22 24 23 22 23 20 18 17 16 15 16 14 14 16 12 12 12 14 14 14 10 18 12 13 8 8 11 14 16 13 11 8 11 10 9 11 15 11 10 11 8
25 23 23 23 21 21 21 21 21 22 23 24 20 19 17 17 15 14 13 14 13 12 12 14 15 13 13 9 15 12 13 14 9 14 11 10 6 7 9 13 16 6 16 17 14 13 14
27 27 25 25 24 23 23 21 20 20 21 22 24 20 19 17 15 12 11 11 10 12 15 12 13 18 8 21 18 13 18 14 9 10 7 8 10 14 13 14 18 20 17 16 8 11 11
29 28 28 27 26 25 23 22 22 19 19 20 21 22 19 17 16 13 9 12 11 14 15 19 22 22 24 13 17 13 17 16 13 13 10 10 12 14 15 13 14 13 15 12 1 7 8
30 29 29 27 28 27 25 23 22 21 19 18 19 20 20 17 16 14 10 12 13 12 15 13 20 23 20 24 14 13 18 18 13 14 15 13 15 10 6 7 9 10 11 9 10 5 11
30 29 29 29 27 27 27 25 22 21 20 18 17 18 18 17 18 15 13 11 12 10 8 12 17 23 20 17 18 14 21 17 17 14 14 17 13 7 5 8 7 11 5 9 9 6 12
31 30 29 28 28 27 27 25 23 22 20 19 16 16 18 18 19 19 12 10 8 7 3 7 12 18 15 20 9 24 20 21 14 13 11 11 9 10 11 10 8 5 7 6 8 9 14
30 30 29 29 28 29 28 25 24 23 21 19 18 16 19 17 17 23 13 10 8 7 7 6 13 17 18 20 15 8 14 21 14 15 13 16 14 9 10 13 14 12 4 7 8 9 10
31 30 30 29 30 31 30 26 24 24 23 20 18 18 18 19 21 18 16 12 7 9 6 10 8 11 19 20 23 18 13 17 17 14 16 14 14 13 15 15 12 17 5 5 5 5 5
31 31 31 30 31 31 30 27 25 25 23 22 20 19 19 19 20 18 20 16 13 7 15 6 7 11 18 18 20 20 18 19 20 18 12 17 15 17 16 16 14 10 14 6 4 4 9
30 30 30 30 29 28 27 26 25 25 23 22 21 20 20 21 20 22 25 25 17 9 5 14 6 12 15 18 16 21 21 23 20 22 22 14 13 14 11 9 15 7 13 15 9 11 7
31 30 30 29 27 26 26 25 24 23 22 21 21 20 23 19 20 22 30 37 21 14 12 8 15 10 15 18 17 15 20 18 20 20 21 16 11 9 13 13 15 15 9 7 9 2 3
30 30 29 27 26 25 24 23 22 22 21 19 20 18 26 20 21 26 38 41 28 17 12 8 13 12 14 16 19 17 11 14 16 15 17 19 12 6 10 14 14 16 18 10 6 8 2
30 28 27 25 24 24 23 23 21 20 19 19 17 16 21 21 24 30 40 26 26 25 17 22 11 12 13 12 11 16 15 10 11 14 16 19 12 17 15 11 15 13 13 18 10 8 8
27 27 26 24 23 23 23 22 21 19 18 17 17 14 22 19 27 27 23 24 22 29 21 18 19 14 10 11 10 13 14 14 12 15 10 13 13 10 14 8 16 19 18 15 19 15 16
25 24 23 21 20 21 21 20 21 18 18 18 21 17 24 22 27 18 22 22 22 24 27 22 20 19 19 16 14 8 14 15 18 14 18 16 14 18 13 0 6 11 16 22 23 16 18
24 24 24 23 19 19 19 20 20 19 19 20 20 23 13 14 28 27 18 16 23 25 24 23 22 23 18 17 18 16 12 10 14 18 17 21 14 13 18 13 8 7 7 14 19 22 15
26 24 23 22 20 18 18 20 20 18 19 21 26 16 22 27 15 14 23 22 21 21 24 27 25 18 19 17 16 16 16 16 12 13 17 18 9 10 15 15 14 14 14 12 15 15 18
23 22 20 21 21 20 19 19 19 18 20 23 24 17 24 23 17 14 17 22 23 17 22 23 24 30 25 21 26 23 14 14 12 16 14 16 16 9 11 11 12 17 18 17 18 19 19
23 21 17 18 20 21 21 20 20 18 19 23 25 22 17 25 19 15 15 15 18 25 19 16 22 24 27 27 28 24 22 18 11 15 13 16 16 11 7 6 2 20 13 12 13 16 14
24 20 16 16 18 19 20 21 21 19 19 21 22 14 18 24 19 15 15 17 17 21 26 23 23 18 22 28 20 22 20 17 17 17 18 17 17 15 7 12 15 15 14 13 8 9 10
25 20 17 16 16 18 20 21 21 20 19 20 23 22 17 18 20 16 16 10 16 13 18 23 31 23 23 20 20 18 13 15 13 12 19 19 19 18 11 6 5 8 8 13 11 12 12
27 22 19 16 15 17 20 22 22 21 20 20 20 24 20 21 18 17 18 18 22 21 21 17 19 19 21 19 24 18 19 16 18 20 19 20 21 23 20 11 10 9 13 11 8 8 14
29 25 21 17 16 18 22 22 21 21 21 22 21 26 24 25 20 22 22 22 20 25 23 22 19 18 20 24 16 13 11 26 19 19 21 22 20 19 20 14 19 11 14 12 11 12 11
30 27 23 19 17 18 23 25 23 22 21 21 22 22 28 25 21 22 28 29 30 27 32 31 20 18 15 14 24 21 15 15 29 24 22 27 25 22 23 25 12 9 20 14 14 14 11
Wind_Direction
272 273 275 275 275 274 275 278 276 277 279 282 280 280 277 262 265 273 277 257 257 242 232 232 243 227 197 186 62 263 244 198 194 195 192 95 233 258 287 300 321 259 279 291 168 148 160
272 273 271 272 273 276 277 276 277 279 279 278 278 281 279 268 262 263 268 261 259 245 239 228 232 238 217 208 234 260 213 194 212 222 216 163 236 268 284 246 271 251 234 202 197 157 175
272 272 273 271 274 274 274 276 277 276 278 279 275 277 279 276 270 262 261 271 254 254 236 232 230 232 231 212 240 232 224 196 203 234 228 253 245 277 269 284 263 227 192 195 192 204 210
276 274 274 275 272 272 274 275 274 276 274 273 274 273 276 279 278 270 255 256 258 252 239 227 229 235 228 235 231 234 249 229 221 213 227 227 225 220 248 246 248 216 222 225 215 206 244
277 277 277 274 276 276 274 272 272 272 274 270 271 270 274 275 282 277 262 252 260 249 239 228 223 228 224 254 243 223 184 216 200 205 215 226 242 232 239 230 229 232 236 222 189 203 240
276 276 277 278 277 277 275 275 273 272 271 272 267 268 269 274 277 279 271 245 252 247 239 224 223 223 219 237 228 217 206 207 218 232 253 252 240 244 230 218 228 246 260 247 212 231 210
274 275 273 275 276 276 278 277 275 273 273 271 269 264 266 267 273 274 271 243 249 248 229 198 205 215 199 233 240 233 223 210 214 227 225 253 247 244 241 238 249 271 272 270 230 219 208
272 272 273 274 275 275 276 276 277 274 272 273 268 266 263 263 264 268 261 240 239 245 242 231 226 223 219 231 227 209 224 212 210 222 233 240 249 269 252 261 255 280 280 275 310 175 227
269 270 271 269 271 273 273 271 275 277 274 271 270 264 261 257 256 258 257 241 239 257 260 254 238 230 235 232 228 223 230 209 222 234 236 245 255 278 225 249 270 263 277 280 295 201 277
267 267 266 268 268 268 270 274 274 274 276 272 267 263 256 251 248 250 251 240 234 254 271 251 247 234 220 224 222 210 228 202 222 236 238 247 252 248 263 242 248 266 294 291 301 295 271
264 264 265 266 267 267 267 269 271 272 272 273 266 259 253 243 246 239 245 235 222 218 320 214 215 206 211 211 237 228 225 212 210 231 235 232 246 260 247 241 233 273 285 307 286 282 293
263 263 265 266 266 266 265 266 268 269 269 268 265 253 249 241 234 239 221 216 206 192 242 236 201 224 197 210 214 200 223 213 226 231 244 238 253 240 233 233 235 249 288 299 279 275 274
262 262 263 264 266 266 266 265 266 267 268 264 260 253 243 238 233 230 217 201 193 226 226 230 219 217 205 212 212 216 215 211 212 208 226 238 253 245 220 225 246 245 264 289 247 226 238
259 260 260 261 262 264 266 266 265 265 263 263 256 252 243 235 235 216 209 199 222 237 207 202 218 214 213 205 215 218 220 220 221 218 233 231 242 224 232 219 225 247 220 208 260 271 344
253 253 255 256 257 261 263 265 265 265 264 260 258 250 242 231 227 212 204 211 224 187 252 233 227 222 225 213 220 217 225 227 224 220 226 249 236 187 210 204 208 241 222 233 275 285 284
248 249 250 252 254 256 260 261 263 262 263 261 255 249 243 229 226 216 210 221 223 225 266 233 217 216 222 210 209 212 217 231 224 221 222 233 257 215 227 220 218 203 198 208 217 145 227
245 246 248 251 254 255 256 258 259 259 259 256 251 242 247 230 221 215 218 222 218 218 233 227 234 241 233 224 215 215 220 224 212 218 208 220 238 197 226 231 219 221 219 214 220 211 225
241 243 247 249 252 255 256 257 256 254 253 249 238 231 243 227 220 221 223 226 217 225 238 228 238 227 233 232 219 219 219 220 202 206 214 212 228 232 239 218 208 214 231 222 209 233 223
240 243 243 246 250 253 254 257 256 251 245 241 228 221 233 226 225 225 233 233 221 228 230 232 242 240 234 235 239 230 220 222 226 204 196 204 217 227 195 236 238 232 224 217 226 227 238
239 240 242 242 246 250 252 255 256 249 239 229 221 232 228 223 219 223 230 226 230 221 229 235 241 238 238 234 228 238 220 229 236 217 201 189 212 219 217 164 231 215 220 226 229 226 229
232 236 244 247 246 250 253 254 251 243 235 224 222 230 216 234 235 226 215 220 228 225 230 229 240 220 219 226 230 230 226 243 247 220 216 208 218 230 233 254 236 242 234 226 233 241 226
231 240 244 249 253 253 251 251 249 238 228 220 221 224 224 215 212 240 227 223 228 227 227 231 230 211 224 228 233 226 232 228 236 237 217 212 216 229 238 238 245 251 243 232 250 243 248
230 237 240 242 244 247 250 250 248 239 226 216 216 225 238 224 223 225 231 237 230 241 227 223 232 236 237 226 236 222 223 214 230 228 232 200 216 222 236 246 242 247 237 239 248 251 249
229 232 234 240 243 244 244 246 246 239 229 223 219 226 228 230 209 228 239 249 225 230 244 232 230 223 235 246 232 223 231 226 211 214 230 201 214 214 213 209 263 256 256 242 251 258 250
225 227 233 243 248 245 242 241 243 240 232 228 219 214 236 241 217 215 242 228 226 223 230 235 245 214 212 232 237 232 223 237 230 222 217 208 207 207 203 222 251 267 252 251 247 257 238
220 223 231 242 252 250 242 238 241 241 236 230 218 211 220 242 237 228 242 269 224 233 226 233 226 240 198 209 204 214 202 212 213 210 210 211 205 212 196 224 230 276 208 210 246 258 226
218 220 228 235 247 251 242 240 243 241 239 232 222 214 221 234 229 221 222 226 220 221 217 203 218 234 237 189 202 205 211 201 216 204 197 201 210 219 210 225 252 259 241 241 235 228 217
217 219 227 233 244 252 243 236 239 237 237 234 225 219 219 234 231 217 219 215 217 221 215 213 220 222 232 228 214 204 218 218 227 231 210 205 199 211 213 225 243 224 235 234 241 231 231
217 221 228 232 242 254 248 237 230 234 233 233 228 224 219 232 238 235 232 224 212 214 216 216 216 216 224 228 229 230 232 222 217 244 222 215 211 203 216 224 222 204 227 248 243 243 242